Date String (YYYY-MM-DD hh:mm:ss) UTC,Instrument flags,Ambient pressure (hPa),Sample flow (lpm),Bypass flow (lpm),Sample temperature (°C),Ambient temperature (°C),ASC tube jacket temperature (°C),LED temperature (°C),Box temperature (°C),Sample RH (%),Span deviation,Mass concentration (μg/m³),Mass concentration (μg/m³),Mass concentration (μg/m³)
DateTimeUTC,F1_M11,P_M11,Q1_M11,Q2_M11,T1_M11,T2_M11,T3_M11,T4_M11,T5_M11,U1_M11,ZSPAN_M11,X0_M11,X2_M11,X1_M11
2022-09-06 21:00:00,,0831.0,5.01,0.00,29.4,27.1,00.0,38.0,31.2,15.3,0003.6,0036.07,0022.97,0021.41
2022-09-06 21:01:00,,0830.9,5.00,0.00,29.4,27.4,00.0,38.0,31.2,14.8,0003.7,0036.87,0023.13,0021.54
2022-09-06 21:02:00,,0830.9,5.01,0.00,29.4,27.8,00.0,38.0,31.3,14.0,0003.6,0038.15,0023.24,0021.66
2022-09-06 21:03:00,,0830.9,4.99,0.00,29.5,28.0,00.0,38.0,31.3,13.7,0003.6,0038.10,0023.35,0021.77
2022-09-06 21:04:00,,0830.9,5.00,0.00,29.5,27.7,00.0,38.1,31.4,13.9,0003.6,0037.29,0023.45,0021.88
2022-09-06 21:05:00,,0830.8,5.01,0.00,29.5,26.8,00.0,38.0,31.3,14.7,0003.3,0035.98,0023.44,0021.93
2022-09-06 21:06:00,,0830.7,4.99,0.00,29.4,26.7,00.0,38.0,31.3,14.6,0003.2,0035.64,0023.46,0021.94
2022-09-06 21:07:00,,0830.8,5.01,0.00,29.4,27.1,00.0,38.0,31.2,14.5,0003.2,0034.32,0023.46,0021.99
2022-09-06 21:08:00,,0830.8,5.01,0.00,29.4,27.3,00.0,38.0,31.2,14.4,0003.0,0034.07,0023.44,0022.01
2022-09-06 21:09:00,,0830.7,5.00,0.00,29.4,27.7,00.0,38.0,31.2,14.2,0003.0,0032.93,0023.45,0022.03
2022-09-06 21:10:00,,0830.7,4.99,0.00,29.5,28.0,00.0,38.0,31.3,14.0,0003.1,0033.20,0023.40,0022.08
2022-09-06 21:11:00,,0830.7,5.00,0.00,29.5,28.0,00.0,38.0,31.4,13.8,0003.6,0033.46,0023.42,0022.10
2022-09-06 21:12:00,,0830.8,4.99,0.00,29.5,27.1,00.0,38.0,31.3,13.5,0003.9,0032.43,0023.42,0022.14
2022-09-06 21:13:00,,0830.8,5.00,0.00,29.4,26.6,00.0,38.0,31.3,13.2,0003.9,0031.46,0023.42,0022.16
2022-09-06 21:14:00,,0830.7,4.99,0.00,29.4,26.9,00.0,38.0,31.3,13.3,0003.4,0031.78,0023.36,0022.14
2022-09-06 21:15:00,,0830.7,5.00,0.00,29.4,27.2,00.0,38.0,31.2,14.4,0003.5,0032.50,0023.25,0022.06
2022-09-06 21:16:00,,0830.7,5.01,0.00,29.4,27.5,00.0,38.0,31.2,15.0,0004.0,0033.68,0023.21,0021.98
2022-09-06 21:17:00,,0830.8,5.02,0.00,29.4,27.8,00.0,38.0,31.3,15.2,0004.2,0034.20,0023.17,0021.91
2022-09-06 21:18:00,,0830.7,4.98,0.00,29.5,28.1,00.0,38.0,31.4,15.2,0004.2,0034.52,0023.10,0021.84
2022-09-06 21:19:00,,0830.8,5.01,0.00,29.5,28.1,00.0,38.0,31.4,15.5,0004.4,0034.58,0023.09,0021.74
2022-09-06 21:20:00,,0830.7,5.00,0.00,29.5,27.2,00.0,38.1,31.2,15.5,0004.1,0035.37,0023.15,0021.71
2022-09-06 21:21:00,,0830.7,4.99,0.00,29.4,26.6,00.0,38.0,31.2,15.9,0004.1,0035.64,0023.14,0021.65
2022-09-06 21:22:00,,0830.7,5.00,0.00,29.4,26.9,00.0,38.0,31.2,15.5,0004.2,0035.22,0023.06,0021.57
2022-09-06 21:23:00,,0830.7,4.99,0.00,29.4,27.2,00.0,38.0,31.1,16.3,0003.8,0036.15,0022.99,0021.47
2022-09-06 21:24:00,,0830.7,5.00,0.00,29.4,27.5,00.0,38.0,31.2,15.7,0003.7,0036.70,0022.91,0021.33
2022-09-06 21:25:00,,0830.8,5.01,0.00,29.5,27.8,00.0,38.0,31.3,15.2,0003.8,0035.65,0022.82,0021.21
2022-09-06 21:26:00,,0830.8,5.00,0.00,29.5,28.1,00.0,38.0,31.4,14.9,0003.7,0035.80,0022.77,0021.15
2022-09-06 21:27:00,,0830.8,4.98,0.00,29.5,27.6,00.0,38.1,31.3,15.3,0003.5,0035.50,0022.75,0021.11
2022-09-06 21:28:00,,0830.8,5.01,0.00,29.5,26.7,00.0,38.1,31.2,15.8,0003.6,0034.92,0022.71,0021.10
2022-09-06 21:29:00,,0830.8,5.00,0.00,29.4,26.7,00.0,38.0,31.2,15.9,0003.7,0035.92,0022.77,0021.11
2022-09-06 21:30:00,,0830.8,4.99,0.00,29.4,27.1,00.0,38.0,31.2,15.7,0003.7,0036.98,0022.74,0021.12
2022-09-06 21:31:00,,0830.8,5.02,0.00,29.4,27.3,00.0,38.0,31.1,15.6,0003.9,0037.05,0022.61,0021.07
2022-09-06 21:32:00,,0830.9,5.01,0.00,29.4,27.6,00.0,38.0,31.2,15.7,0003.8,0036.12,0022.49,0021.01
2022-09-06 21:33:00,,0830.9,4.99,0.00,29.5,27.9,00.0,38.0,31.3,15.7,0003.6,0037.04,0022.46,0020.95
2022-09-06 21:34:00,,0830.9,5.01,0.00,29.5,28.2,00.0,38.0,31.4,15.9,0003.8,0036.69,0022.39,0020.85
2022-09-06 21:35:00,,0830.9,4.98,0.00,29.5,27.8,00.0,38.1,31.4,16.1,0004.0,0036.49,0022.28,0020.77
2022-09-06 21:36:00,,0830.9,5.01,0.00,29.5,26.8,00.0,38.1,31.3,16.2,0004.3,0036.59,0022.24,0020.71
2022-09-06 21:37:00,,0830.8,5.01,0.00,29.5,26.8,00.0,38.1,31.3,16.1,0004.2,0035.54,0022.16,0020.63
2022-09-06 21:38:00,,0830.8,5.00,0.00,29.5,27.2,00.0,38.0,31.3,16.4,0004.2,0034.64,0022.04,0020.57
2022-09-06 21:39:00,,0830.9,5.00,0.00,29.4,27.5,00.0,38.0,31.2,16.2,0004.0,0035.18,0021.97,0020.49
2022-09-06 21:40:00,,0830.9,5.00,0.00,29.5,27.8,00.0,38.0,31.3,16.2,0003.7,0034.68,0021.78,0020.36
2022-09-06 21:41:00,,0830.8,4.98,0.00,29.5,28.1,00.0,38.0,31.4,16.3,0003.4,0033.36,0021.64,0020.25
2022-09-06 21:42:00,,0830.9,5.00,0.00,29.6,28.1,00.0,38.1,31.5,17.1,0003.5,0033.25,0021.53,0020.16
2022-09-06 21:43:00,,0830.9,4.99,0.00,29.5,27.1,00.0,38.1,31.4,16.9,0003.7,0033.79,0021.44,0020.10
2022-09-06 21:44:00,,0830.9,5.00,0.00,29.5,26.6,00.0,38.1,31.3,16.7,0003.4,0032.77,0021.35,0020.08
2022-09-06 21:45:00,,0830.9,5.00,0.00,29.5,26.9,00.0,38.1,31.3,16.4,0003.2,0032.84,0021.33,0020.09
2022-09-06 21:46:00,,0830.9,5.00,0.00,29.4,27.2,00.0,38.0,31.2,16.8,0002.9,0033.49,0021.37,0020.14
2022-09-06 21:47:00,,0830.9,5.01,0.00,29.4,27.5,00.0,38.0,31.2,17.1,0002.5,0033.86,0021.40,0020.16
2022-09-06 21:48:00,,0830.8,5.00,0.00,29.5,27.9,00.0,38.0,31.3,17.3,0002.6,0034.23,0021.39,0020.12
2022-09-06 21:49:00,,0830.9,4.98,0.00,29.5,28.1,00.0,38.1,31.4,17.5,0002.2,0034.98,0021.46,0020.10
2022-09-06 21:50:00,,0830.8,5.00,0.00,29.5,27.6,00.0,38.1,31.4,17.4,0001.9,0035.81,0021.51,0020.07
2022-09-06 21:51:00,,0830.9,5.01,0.00,29.5,26.7,00.0,38.1,31.2,17.4,0002.7,0036.67,0021.63,0020.06
2022-09-06 21:52:00,,0830.8,5.01,0.00,29.5,26.8,00.0,38.1,31.3,17.4,0002.8,0037.63,0021.75,0020.07
2022-09-06 21:53:00,,0830.9,5.00,0.00,29.4,27.1,00.0,38.1,31.3,17.4,0002.7,0037.42,0021.82,0020.08
2022-09-06 21:54:00,,0830.9,5.00,0.00,29.4,27.4,00.0,38.0,31.2,17.5,0003.0,0037.45,0021.87,0020.10
2022-09-06 21:55:00,,0830.9,5.01,0.00,29.5,27.7,00.0,38.0,31.3,17.8,0003.0,0037.48,0021.90,0020.04
2022-09-06 21:56:00,,0830.8,4.99,0.00,29.5,28.0,00.0,38.0,31.4,18.0,0002.7,0037.58,0021.90,0019.99
2022-09-06 21:57:00,,0830.9,5.00,0.00,29.5,28.0,00.0,38.1,31.5,18.0,0003.2,0037.23,0021.92,0019.93
2022-09-06 21:58:00,,0830.9,4.99,0.00,29.5,27.1,00.0,38.1,31.3,17.9,0003.4,0036.82,0021.95,0019.91
2022-09-06 21:59:00,,0830.9,5.00,0.00,29.5,26.7,00.0,38.1,31.3,17.8,0003.3,0037.10,0021.96,0019.91
